Location: Colonia Mina de C?rbuni
(46.1667°N, 22.7167°E)
Time: 21:28:46
(UTC+00:00)

Tiros 1 - Pass Details

Date: 24 April 2024
Orbit: 624 x 657 km, 48.4° (Epoch: 20 May)

Event Time Altitude Azimuth Distance (km) Brightness Sun altitude
Rises 00:02:48 0° 276° (W) 2,928 - -27.1°
Reaches altitude 10° 00:05:09 10° 279° (W) 2,015 - -26.9°
Maximum altitude 00:09:46 65° 2° (N) 690 - -26.5°
Exits shadow 00:09:55 65° 15° (NNE) 693 7.4 -26.5°
Drops below altitude 10° 00:14:20 10° 85° (E) 1,999 10.1 -26.2°
Sets 00:16:40 0° 88° (E) 2,903 10.9 -26.0°
